Regional Weather Roundup
Issued by NWS Burlington, VT

Current Version | Previous Version | Text Only | Print | Product List | Glossary On
Versions: 1 2 3 4 5 6 7 8 9 10 11 12 13 14 15 16 17 18 19 20 21 22 23 24 25 26 27 28 29 30 31 32 33 34 35 36 37 38 39 40 41 42 43 44 45 46 47 48 49 50
208
ASUS41 KBTV 261210
RWRBTV
VERMONT REGIONAL WEATHER ROUNDUP
NATIONAL WEATHER SERVICE BURLINGTON VT
800 AM EDT TUE JUL 26 2016

NOTE: "FAIR" INDICATES FEW OR NO CLOUDS BELOW 12,000 FEET WITH NO
SIGNIFICANT WEATHER AND/OR OBSTRUCTIONS TO VISIBILITY.

* THESE REPORTS ARE NOT UNDER NWS QUALITY CONTROL AND/OR DO NOT
  REPORT WEATHER SUCH AS PRECIPITATION AND FOG.

VTZ001>019-261300-
_____VERMONT_____


CITY           SKY/WX    TMP DP  RH WIND       PRES   REMARKS
BURLINGTON     CLOUDY    75  60  59 W8        29.82R
6HR MIN TEMP:  73; 6HR MAX TEMP:  76;

MONTPELIER     FAIR      72  61  68 NW5       29.88R
6HR MIN TEMP:  65; 6HR MAX TEMP:  72;

MORRISVILLE    PTSUNNY   71  62  73 S5        29.84R
6HR MIN TEMP:  66; 6HR MAX TEMP:  74;

ST. JOHNSBURY*   N/A     71  65  81 MISG      29.80S
6HR MIN TEMP:  64; 6HR MAX TEMP:  71;

LYNDONVILLE*   FAIR      69  63  81 SW3       29.85R
6HR MIN TEMP:  63; 6HR MAX TEMP:  70;

MIDDLEBURY*    FAIR      72  69  91 S3        29.84S
6HR MIN TEMP:  65; 6HR MAX TEMP:  73;

RUTLAND*       FAIR      72  64  76 W9        29.86R
6HR MIN TEMP:  66; 6HR MAX TEMP:  73;

SPRINGFIELD    FAIR      74  63  68 CALM      29.84S
6HR MIN TEMP:  65; 6HR MAX TEMP:  74;

HIGHGATE*      CLOUDY    71  63  76 SW3       29.81R
6HR MIN TEMP:  70; 6HR MAX TEMP:  74;

NEWPORT*       FAIR      70  62  75 W9G16     29.82R
6HR MIN TEMP:  66; 6HR MAX TEMP:  71;

BENNINGTON     PTSUNNY   73  65  75 W8        29.88S
6HR MIN TEMP:  66; 6HR MAX TEMP:  73;


_____LAKE CHAMPLAIN_____


CITY           SKY/WX    TMP DP  RH WIND       PRES   REMARKS
BURTON ISLAND*   N/A     73  63  68 W6          N/A
COLCHESTER RF*   N/A     73  64  73 W20         N/A
DIAMOND ISL*     N/A     75  61  60 SW8         N/A

$$

NYZ007-026>031-035-052-083-087-261300-
_____NORTHERN NEW YORK_____


CITY           SKY/WX    TMP DP  RH WIND       PRES   REMARKS
PLATTSBURGH    MOSUNNY   75  63  66 SW7       29.81R
6HR MIN TEMP:  70; 6HR MAX TEMP:  75;

SARANAC LAKE   CLOUDY    66  60  81 SW7       29.89R
6HR MIN TEMP:  62; 6HR MAX TEMP:  67;

MASSENA        SUNNY     71  62  73 W9        29.85R
6HR MIN TEMP:  64; 6HR MAX TEMP:  71;

OGDENSBURG*    SUNNY     73  64  73 NW7       29.87R
POTSDAM*       PTSUNNY   72  66  83 W7        29.87R
WATERTOWN      CLOUDY    70  61  73 W7        29.90R
6HR MIN TEMP:  68; 6HR MAX TEMP:  73;

FT DRUM        PTSUNNY   69  62  78 VRB6      29.90R
6HR MIN TEMP:  64; 6HR MAX TEMP:  72;

ALBANY         MOSUNNY   75  66  73 SW6       29.88S
6HR MIN TEMP:  65; 6HR MAX TEMP:  75;

GLENS FALLS    SUNNY     74  65  73 SW7       29.85R
6HR MIN TEMP:  66; 6HR MAX TEMP:  74;


$$
NHZ002-005-011-261300-
_____NEW HAMPSHIRE_____


CITY           SKY/WX    TMP DP  RH WIND       PRES   REMARKS
LEBANON        SUNNY     74  66  76 CALM      29.83R
6HR MIN TEMP:  63; 6HR MAX TEMP:  74;

KEENE          SUNNY     77  66  68 W6        29.85
6HR MIN TEMP:  63; 6HR MAX TEMP:  77;

MT WASHINGTON  DRZL/FOG  52  52 100 NW33G45     N/A  VSB 0
6HR MIN TEMP:  52; 6HR MAX TEMP:  56; 6HR PCP:  0.10;

PLYMOUTH       FAIR      74  65  74 W6        29.81S
6HR MIN TEMP:  63; 6HR MAX TEMP:  74;

WHITEFIELD     PTSUNNY   70  64  81 SW5       29.83R
6HR MIN TEMP:  63; 6HR MAX TEMP:  70; 6HR PCP: TRACE;


$$

_____REGIONAL QUEBEC LOCATIONS_____


CITY           SKY/WX    TMP DP  RH WIND       PRES   REMARKS
MONTREAL       MOSUNNY   72  66  83 W8        29.79R
QUEBEC CITY    MOSUNNY   68  66  94 SW9       29.72S FOG
SHERBROOKE     CLOUDY    70  68  94 W6        29.79R

_____REGIONAL ONTARIO LOCATIONS_____


CITY           SKY/WX    TMP DP  RH WIND       PRES   REMARKS
OTTAWA         MOSUNNY   72  64  78 W10G20    29.85R

______KEY______
VSB  - VISIBILITY IN MILES
WCI  - WIND CHILL INDEX
HX   - HEAT INDEX
$$
NNNN




USA.gov is the U.S. government's official web portal to all federal, state and local government web resources and services.